• In Uzbekistan
  • List of Countries
  • For 7 days
  • Water Temperature
  • Satellite Maps
  • Weather Map
  • Weather Widgets
  • user-avatar
    Login

    Hourly Weather Dikhil

    Today, 18 July, Wednesday

    Time Temperature Precipitation Wind Pressure Humidity
    00:00 +37°C° 0.2 mm 2 mps 713 mmHg 29%
    01:00 +37°C° 0.4 mm 3 mps 713 mmHg 31%
    02:00 +36°C° 0.4 mm 4 mps 713 mmHg 33%
    03:00 +35°C° 0.4 mm 5 mps 713 mmHg 35%
    04:00 +35°C° 0 mm 5 mps 714 mmHg 37%
    05:00 +34°C° 0 mm 6 mps 714 mmHg 39%
    06:00 +33°C° 0 mm 6 mps 714 mmHg 40%
    07:00 +34°C° 0 mm 7 mps 714 mmHg 38%
    08:00 +35°C° 0 mm 8 mps 714 mmHg 36%
    09:00 +37°C° 0 mm 9 mps 715 mmHg 33%
    10:00 +38°C° 0 mm 8 mps 714 mmHg 31%
    11:00 +39°C° 0 mm 8 mps 714 mmHg 29%
    12:00 +40°C° 0 mm 8 mps 714 mmHg 26%
    13:00 +41°C° 0 mm 6 mps 713 mmHg 25%
    14:00 +41°C° 0 mm 5 mps 713 mmHg 23%
    15:00 +42°C° 0 mm 3 mps 712 mmHg 22%
    16:00 +42°C° 0 mm 3 mps 712 mmHg 22%
    17:00 +41°C° 0 mm 2 mps 712 mmHg 22%
    18:00 +41°C° 0 mm 2 mps 712 mmHg 22%
    19:00 +40°C° 0 mm 2 mps 712 mmHg 23%
    20:00 +40°C° 0 mm 2 mps 713 mmHg 24%
    21:00 +39°C° 0 mm 2 mps 713 mmHg 25%
    22:00 +39°C° 0.1 mm 2 mps 714 mmHg 27%
    23:00 +38°C° 0.1 mm 2 mps 714 mmHg 30%

    Tomorrow, 19 July, Thursday

    Time Temperature Precipitation Wind Pressure Humidity
    00:00 +37°C° 0.1 mm 2 mps 714 mmHg 32%
    01:00 +37°C° 0.1 mm 2 mps 714 mmHg 32%
    02:00 +36°C° 0.1 mm 3 mps 714 mmHg 33%
    03:00 +35°C° 0.1 mm 3 mps 714 mmHg 34%
    04:00 +35°C° 0.2 mm 4 mps 714 mmHg 35%
    05:00 +34°C° 0.2 mm 4 mps 714 mmHg 36%
    06:00 +34°C° 0.2 mm 4 mps 714 mmHg 37%
    07:00 +34°C° 0 mm 5 mps 715 mmHg 36%
    08:00 +35°C° 0 mm 5 mps 715 mmHg 34%
    09:00 +36°C° 0 mm 5 mps 716 mmHg 33%
    10:00 +38°C° 0 mm 6 mps 716 mmHg 31%
    11:00 +39°C° 0 mm 6 mps 715 mmHg 29%
    12:00 +40°C° 0 mm 6 mps 715 mmHg 27%
    13:00 +41°C° 0 mm 6 mps 715 mmHg 26%
    14:00 +41°C° 0 mm 5 mps 714 mmHg 25%
    15:00 +41°C° 0 mm 4 mps 713 mmHg 24%
    16:00 +40°C° 0 mm 3 mps 713 mmHg 24%
    17:00 +40°C° 0 mm 3 mps 713 mmHg 24%
    18:00 +40°C° 0 mm 2 mps 713 mmHg 25%
    19:00 +40°C° 0 mm 2 mps 713 mmHg 26%
    20:00 +39°C° 0 mm 3 mps 714 mmHg 27%
    21:00 +39°C° 0 mm 3 mps 715 mmHg 28%
    22:00 +38°C° 0 mm 3 mps 715 mmHg 30%
    23:00 +37°C° 0 mm 4 mps 715 mmHg 32%

    Day after tomorrow, 20 July, Friday

    Time Temperature Precipitation Wind Pressure Humidity
    00:00 +36°C° 0 mm 4 mps 715 mmHg 34%
    01:00 +36°C° 0.8 mm 4 mps 715 mmHg 35%
    02:00 +35°C° 0.8 mm 4 mps 714 mmHg 37%
    03:00 +34°C° 0.8 mm 4 mps 714 mmHg 39%
    04:00 +33°C° 0.5 mm 4 mps 714 mmHg 40%
    05:00 +33°C° 0.5 mm 5 mps 715 mmHg 41%
    06:00 +33°C° 0.5 mm 5 mps 715 mmHg 43%
    07:00 +33°C° 0 mm 5 mps 715 mmHg 42%
    08:00 +34°C° 0 mm 6 mps 716 mmHg 41%
    09:00 +35°C° 0 mm 7 mps 716 mmHg 40%
    10:00 +36°C° 0 mm 6 mps 716 mmHg 37%
    11:00 +38°C° 0 mm 6 mps 716 mmHg 34%
    12:00 +39°C° 0 mm 6 mps 716 mmHg 31%
    13:00 +40°C° 0 mm 5 mps 715 mmHg 29%
    14:00 +40°C° 0 mm 4 mps 714 mmHg 28%
    15:00 +41°C° 0 mm 4 mps 713 mmHg 26%
    16:00 +40°C° 0 mm 3 mps 713 mmHg 26%
    17:00 +40°C° 0 mm 3 mps 713 mmHg 26%
    18:00 +40°C° 0 mm 2 mps 713 mmHg 25%
    19:00 +39°C° 0 mm 2 mps 713 mmHg 26%
    20:00 +39°C° 0 mm 2 mps 714 mmHg 27%
    21:00 +39°C° 0 mm 2 mps 714 mmHg 28%
    22:00 +38°C° 0.1 mm 3 mps 714 mmHg 30%
    23:00 +37°C° 0.1 mm 3 mps 714 mmHg 32%

    21 July, Saturday

    Time Temperature Precipitation Wind Pressure Humidity
    00:00 +36°C° 0.1 mm 4 mps 714 mmHg 34%
    01:00 +36°C° 0.5 mm 4 mps 714 mmHg 36%
    02:00 +35°C° 0.5 mm 4 mps 714 mmHg 37%
    03:00 +34°C° 0.5 mm 4 mps 713 mmHg 39%
    04:00 +34°C° 0.3 mm 4 mps 714 mmHg 40%
    05:00 +33°C° 0.3 mm 4 mps 714 mmHg 41%
    06:00 +33°C° 0.3 mm 4 mps 714 mmHg 41%
    07:00 +34°C° 0 mm 5 mps 715 mmHg 39%
    08:00 +35°C° 0 mm 6 mps 715 mmHg 37%
    09:00 +35°C° 0 mm 7 mps 716 mmHg 34%
    10:00 +36°C° 0 mm 7 mps 716 mmHg 32%
    11:00 +38°C° 0 mm 7 mps 715 mmHg 30%
    12:00 +40°C° 0 mm 7 mps 715 mmHg 28%
    13:00 +40°C° 0 mm 6 mps 714 mmHg 27%
    14:00 +40°C° 0 mm 5 mps 714 mmHg 26%
    15:00 +41°C° 0 mm 4 mps 713 mmHg 25%
    16:00 +40°C° 0 mm 3 mps 713 mmHg 25%
    17:00 +40°C° 0 mm 3 mps 713 mmHg 24%
    18:00 +40°C° 0 mm 2 mps 713 mmHg 24%
    19:00 +39°C° 0 mm 3 mps 714 mmHg 27%
    20:00 +38°C° 0 mm 3 mps 714 mmHg 29%
    21:00 +37°C° 0 mm 4 mps 715 mmHg 32%
    22:00 +37°C° 0.1 mm 4 mps 715 mmHg 34%
    23:00 +36°C° 0.1 mm 5 mps 715 mmHg 36%

    22 July, Sunday

    Time Temperature Precipitation Wind Pressure Humidity
    00:00 +35°C° 0.1 mm 5 mps 715 mmHg 38%
    01:00 +34°C° 0.4 mm 5 mps 714 mmHg 39%
    02:00 +33°C° 0.4 mm 5 mps 714 mmHg 41%
    03:00 +33°C° 0.4 mm 5 mps 714 mmHg 42%
    04:00 +33°C° 0.1 mm 5 mps 714 mmHg 42%
    05:00 +32°C° 0.1 mm 5 mps 715 mmHg 43%
    06:00 +32°C° 0.1 mm 5 mps 715 mmHg 43%
    07:00 +33°C° 0 mm 5 mps 716 mmHg 41%
    08:00 +33°C° 0 mm 6 mps 716 mmHg 39%
    09:00 +34°C° 0 mm 7 mps 716 mmHg 37%
    10:00 +35°C° 0 mm 7 mps 716 mmHg 34%
    11:00 +38°C° 0 mm 7 mps 716 mmHg 32%
    12:00 +39°C° 0 mm 7 mps 715 mmHg 29%
    13:00 +40°C° 0 mm 6 mps 714 mmHg 27%
    14:00 +40°C° 0 mm 6 mps 714 mmHg 26%
    15:00 +41°C° 0 mm 5 mps 713 mmHg 24%
    16:00 +41°C° 0 mm 4 mps 713 mmHg 24%
    17:00 +40°C° 0 mm 3 mps 713 mmHg 24%
    18:00 +39°C° 0 mm 3 mps 713 mmHg 24%
    19:00 +39°C° 0 mm 3 mps 714 mmHg 26%
    20:00 +38°C° 0 mm 4 mps 714 mmHg 28%
    21:00 +37°C° 0 mm 4 mps 715 mmHg 30%
    22:00 +36°C° 0 mm 5 mps 715 mmHg 33%
    23:00 +35°C° 0 mm 6 mps 715 mmHg 35%

    23 July, Monday

    Time Temperature Precipitation Wind Pressure Humidity
    00:00 +34°C° 0 mm 7 mps 715 mmHg 37%
    01:00 +34°C° 0 mm 6 mps 715 mmHg 38%
    02:00 +34°C° 0 mm 6 mps 714 mmHg 38%
    03:00 +33°C° 0 mm 5 mps 714 mmHg 39%
    04:00 +33°C° 0 mm 4 mps 715 mmHg 39%
    05:00 +33°C° 0 mm 4 mps 715 mmHg 40%
    06:00 +31°C° 0 mm 3 mps 715 mmHg 41%
    07:00 +33°C° 0 mm 4 mps 716 mmHg 39%
    08:00 +34°C° 0 mm 5 mps 716 mmHg 36%
    09:00 +35°C° 0 mm 6 mps 716 mmHg 34%
    10:00 +36°C° 0 mm 6 mps 716 mmHg 31%
    11:00 +38°C° 0 mm 6 mps 715 mmHg 29%
    12:00 +39°C° 0 mm 7 mps 715 mmHg 27%
    13:00 +40°C° 0 mm 6 mps 714 mmHg 26%
    14:00 +41°C° 0 mm 5 mps 714 mmHg 24%
    15:00 +40°C° 0 mm 3 mps 713 mmHg 23%
    16:00 +40°C° 0 mm 3 mps 713 mmHg 23%
    17:00 +40°C° 0 mm 3 mps 713 mmHg 24%
    18:00 +40°C° 0 mm 2 mps 713 mmHg 24%
    19:00 +39°C° 0.1 mm 3 mps 713 mmHg 25%
    20:00 +39°C° 0.1 mm 3 mps 714 mmHg 27%
    21:00 +38°C° 0.1 mm 3 mps 714 mmHg 29%
    22:00 +37°C° 0.1 mm 3 mps 714 mmHg 31%
    23:00 +37°C° 0.1 mm 3 mps 714 mmHg 33%
    Show more